Home > Weather > Passaic > Past weeks

Flag for USA Weather for the Past 2 Weeks in Passaic, New Jersey, USA

Now
54 °F

Overcast.


Feels Like: 54 °F
Forecast: 52 / 55 °F
Wind: No wind

Location: Teterboro Airport

Current Time: May 3, 2016 at 6:25:32 PM

Latest Report: May 3, 2016 at 5:51 PM


Visibility: 10 mi

Pressure: 29.81 "Hg

Humidity: 80%

Dew Point: 48 °F

Location of PassaicLocation

Historic Weather in Passaic — Graph

°F

Passaic Temperature Yesterday

Maximum temperature yesterday: 61 °F (at 6:03 PM)
Minimum temperature yesterday: 45 °F (at 1:59 AM)
Average temperature yesterday: 52 °F

High & Low Weather Summary for the Past Weeks

 TemperatureHumidityPressure
High82 °F (Apr 22, 2:51 PM)94% (May 3, 2:59 AM)30.26 "Hg (May 3, 2:59 AM)
Low44 °F (May 1, 11:51 PM)8% (Apr 20, 3:51 PM)29.63 "Hg (Apr 26, 2:51 PM)
Average57 °F53%29.99 "Hg
* Reported Apr 18 4:51 PM — May 3 4:51 PM, Passaic, Weather by CustomWeather, © 2016

Note: Actual official high and low records may vary slightly from our data, if they occured in-between our weather recording intervals... More about our weather records

Advertising

Passaic Weather History for the Previous 24 Hours

Scroll right to see more
 ConditionsComfort  
Time TempWeatherWind HumidityBarometerVisibility
4:51 PM
Tue, May 3
54 °FOvercast.8 mph80%29.80 "Hg10 mi
4:01 PM54 °FFog.9 mph82%29.80 "Hg5 mi
2:59 PM54 °FCloudy.5 mph82%29.81 "Hg10 mi
1:59 PM54 °FMostly cloudy.8 mph82%29.82 "Hg4 mi
12:51 PM54 °FMostly cloudy.3 mph83%29.83 "Hg5 mi
11:51 AM54 °FLight rain. Mostly cloudy.8 mph83%29.85 "Hg1 mi
10:51 AM53 °FLight rain. Fog.3 mph86%29.85 "Hg1 mi
9:53 AM54 °FLight rain. Fog.3 mph82%29.85 "Hg2 mi
8:51 AM53 °FLight rain. Fog.5 mph86%29.85 "Hg4 mi
7:51 AM53 °FRain. Fog.3 mph86%29.87 "Hg5 mi
6:58 AM54 °FRain. Fog.3 mph82%29.87 "Hg5 mi
5:51 AM53 °FRain. Fog.6 mph86%29.86 "Hg2 mi
4:51 AM53 °FRain. Fog.6 mph89%29.85 "Hg1 mi
3:51 AM54 °FRain. Fog.5 mph90%29.85 "Hg3 mi
2:59 AM54 °FRain. Fog.5 mph94%29.87 "Hg3 mi
1:55 AM55 °FRain. Fog.5 mph88%29.89 "Hg4 mi
12:51 AM55 °FRain. Mostly cloudy.3 mph87%29.91 "Hg7 mi
11:51 PM
Mon, May 2
55 °FLight rain. Partly cloudy.5 mph87%29.93 "Hg7 mi
10:51 PM54 °FClear.No wind83%29.93 "Hg10 mi
9:51 PM56 °FClear.No wind81%29.91 "Hg10 mi
8:51 PM55 °FPassing clouds.No wind80%29.90 "Hg10 mi
7:51 PM58 °FSunny.6 mph75%29.91 "Hg8 mi
6:51 PM60 °FPassing clouds.5 mph72%29.89 "Hg10 mi
6:03 PM61 °FScattered clouds.No wind68%29.88 "Hg8 mi
Weather by CustomWeather, © 2016

See weather overviewHow to use our weather pages